,

(GMT )
Port Weller

Weather History for CWWZ - September, 2012

Change the Weather History Date:

Sunday, September 2, 2012

  Actual Average Record
Temperature  
Mean Temperature 72 °F -  
Max Temperature 75 °F - - ()
Min Temperature 68 °F - - ()
Cooling Degree Days 6    
Growing Degree Days 22 (Base 50)    
Moisture  
Dew Point 62 °F    
Average Humidity 69    
Maximum Humidity 91    
Minimum Humidity 54    
Precipitation  
Precipitation 0.00 in - - ()
Sea Level Pressure  
Sea Level Pressure 30.05 in    
Wind  
Wind Speed 8 mph ()    
Max Wind Speed 15 mph    
Max Gust Speed -    
T = Trace of Precipitation, MM = Missing Value Source: Averaged Metar Reports

Daily Weather History Graph

Daily Weather History Graph

Search for Another Location

Airport or City:

Trip Planner

Search our weather history database for the weather conditions in past years. The results will help you decide how hot, cold, wet, or windy it might be!

Date:

Astronomy

Sep. 02, 2012 Rise Set
Actual Time 6:42 AM EDT 7:49 PM EDT
Civil Twilight 6:13 AM EDT 8:18 PM EDT
Nautical Twilight 5:38 AM EDT 8:53 PM EDT
Astronomical Twilight 5:01 AM EDT 9:29 PM EDT
Moon 8:29 PM EDT (9/2) 8:54 AM EDT (9/2)
Length of Visible Light 14h 05m
Length of Day
13h 06m
Waning Gibbous, 95% of the Moon is Illuminated
Sep 2
Waning Gibbous
Sep 8
Last Quarter
Sep 15
New
Sep 22
First Quarter
Sep 29
Full

Hourly Weather History & Observations

Time (EDT) Temp. Dew Point Humidity Pressure Visibility Wind Dir Wind Speed Gust Speed Precip Events Conditions
12:00 AM 70.7 °F 55.8 °F 59% 30.06 in - SE 4.6 mph - N/A   Unknown
1:00 AM 69.8 °F 54.7 °F 59% 30.06 in - South 3.5 mph - N/A   Unknown
2:00 AM 70 °F 64 °F 77% 30.07 in - North 8.1 mph - -  
2:00 AM 69.6 °F 64.4 °F 83% 30.07 in - North 8.1 mph - N/A   Unknown
3:00 AM 70.3 °F 67.6 °F 91% 30.06 in - North 5.8 mph - N/A   Unknown
4:00 AM 70.9 °F 67.6 °F 89% 30.06 in - NNE 6.9 mph - N/A   Unknown
5:00 AM 71 °F 63 °F 70% 30.06 in - NNE 8.1 mph - -  
5:00 AM 70.9 °F 63.3 °F 77% 30.06 in - NNE 8.1 mph - N/A   Unknown
6:00 AM 70.3 °F 62.4 °F 76% 30.06 in - NNE 9.2 mph - N/A   Unknown
7:00 AM 70.2 °F 63.0 °F 78% 30.06 in - NNE 9.2 mph - N/A   Unknown
8:00 AM 69 °F 62 °F 73% 30.07 in - NNE 10.4 mph - -  
8:00 AM 69.1 °F 62.2 °F 79% 30.07 in - NNE 10.4 mph - N/A   Unknown
9:00 AM 70.5 °F 62.6 °F 76% 30.08 in - NNE 10.4 mph - N/A   Unknown
10:00 AM 70.9 °F 63.3 °F 77% 30.08 in - NE 10.4 mph - N/A   Unknown
11:00 AM 71 °F 62 °F 64% 30.08 in - ENE 11.5 mph - -  
11:00 AM 71.4 °F 61.5 °F 71% 30.08 in - ENE 11.5 mph - N/A   Unknown
12:00 PM 72.5 °F 61.9 °F 69% 30.08 in - NE 9.2 mph - N/A   Unknown
1:00 PM 73.0 °F 62.1 °F 68% 30.07 in - NNE 9.2 mph - N/A   Unknown
2:00 PM 74 °F 61 °F 55% 30.06 in - NE 10.4 mph - -  
2:00 PM 73.9 °F 61.2 °F 64% 30.06 in - NE 10.4 mph - N/A   Unknown
3:00 PM 74.8 °F 59.4 °F 58% 30.03 in - NNE 13.8 mph - N/A   Unknown
4:00 PM 74.5 °F 60.3 °F 61% 30.02 in - NE 15.0 mph - N/A   Unknown
5:00 PM 74 °F 62 °F 57% 30.02 in - ENE 13.8 mph - -  
5:00 PM 74.5 °F 61.9 °F 65% 30.02 in - ENE 13.8 mph - N/A   Unknown
6:00 PM 73.9 °F 62.4 °F 67% 30.02 in - ENE 13.8 mph - N/A   Unknown
7:00 PM 73.4 °F 63.9 °F 72% 30.01 in - East 11.5 mph - N/A   Unknown
8:00 PM 73 °F 65 °F 68% 30.01 in - East 9.2 mph - -  
8:00 PM 73.0 °F 64.6 °F 75% 30.01 in - East 9.2 mph - N/A   Unknown
9:00 PM 72.7 °F 57.6 °F 59% 30.03 in - ESE 4.6 mph - N/A   Unknown
10:00 PM 71.8 °F 58.6 °F 63% 30.03 in - East 4.6 mph - N/A   Unknown
11:00 PM 71 °F 58 °F 54% 30.03 in - ESE 4.6 mph - -  
11:00 PM 70.5 °F 57.9 °F 64% 30.03 in - ESE 4.6 mph - N/A   Unknown